Zurück zum Katalog

THEOS

AktivWissenschaftSSO
NORAD 33396·PAYLOAD·🇹🇭 Thailand

Gestartet Oct 1, 2008 von Dombarovsky

Loading…

Nächste Überflüge (nächste 24 Stunden)

TLE

AktuellSource: Space-Track

Epoche: Sep 14, 2026, 14:07 UTC

1 33396U 08049A   26257.58832907 -.00000206  00000-0 -76606-4 0  9998
2 33396  98.5482 311.9300 0001330  87.6306 272.5023 14.20141807930658

Verfolge THEOS in Echtzeit mit AllMySat

Download on the App Store